This is the latest recevied weather packets stored in our database for station/object W4OTS. If no packets are shown the sender has not sent any weather packets the latest 10 day(s).
| Time | Temp. | Humidity | Pressure | Rain* | Wind** | Luminosity | Snow |
|---|---|---|---|---|---|---|---|
| 1777851502 | 17.78° C | 41% | 1017.2 hPa | 0 mm | - | 11 W/m² | - |
| 1777851198 | 17.78° C | 40% | 1017.1 hPa | 0 mm | - | 12 W/m² | - |
| 1777850894 | 17.78° C | 39% | 1017.3 hPa | 0 mm | - | 14 W/m² | - |
| 1777850592 | 17.78° C | 40% | 1017.3 hPa | 0 mm | - | 15 W/m² | - |
| 1777850290 | 18.33° C | 38% | 1017.1 hPa | 0 mm | - | 16 W/m² | - |
| 1777849987 | 18.33° C | 40% | 1017.2 hPa | 0 mm | - | 16 W/m² | - |
| 1777849682 | 18.33° C | 38% | 1017.4 hPa | 0 mm | - | 17 W/m² | - |
| 1777849380 | 18.33° C | 38% | 1017.1 hPa | 0 mm | - | 18 W/m² | - |
| 1777849077 | 18.33° C | 38% | 1017.4 hPa | 0 mm | - | 19 W/m² | - |
| 1777848772 | 18.33° C | 39% | 1017.4 hPa | 0 mm | - | 19 W/m² | - |
| 1777848469 | 18.33° C | 39% | 1017.1 hPa | 0 mm | - | 20 W/m² | - |
| 1777848167 | 18.89° C | 40% | 1017.2 hPa | 0 mm | - | 20 W/m² | - |
| 1777847864 | 18.89° C | 39% | 1017.2 hPa | 0 mm | - | 21 W/m² | - |
| 1777847562 | 18.89° C | 38% | 1017.3 hPa | 0 mm | - | 22 W/m² | - |
| 1777847258 | 18.89° C | 38% | 1017.2 hPa | 0 mm | - | 22 W/m² | - |
| 1777846956 | 18.89° C | 36% | 1017.5 hPa | 0 mm | - | 23 W/m² | - |
| 1777846654 | 18.89° C | 40% | 1017.2 hPa | 0 mm | - | 23 W/m² | - |
| 1777846352 | 18.89° C | 41% | 1017.3 hPa | 0 mm | - | 23 W/m² | - |
| 1777846048 | 18.89° C | 40% | 1017.3 hPa | 0 mm | - | 24 W/m² | - |
| 1777845745 | 18.89° C | 40% | 1017.5 hPa | 0 mm | - | 25 W/m² | - |
| 1777845441 | 18.89° C | 40% | 1017.4 hPa | 0 mm | - | 29 W/m² | - |
| 1777845139 | 18.89° C | 42% | 1017.4 hPa | 0 mm | - | 27 W/m² | - |
| 1777844837 | 18.89° C | 42% | 1017.5 hPa | 0 mm | - | 26 W/m² | - |
| 1777844533 | 18.89° C | 42% | 1017.8 hPa | 0 mm | - | 27 W/m² | - |
| 1777844231 | 18.89° C | 42% | 1017.8 hPa | 0 mm | - | 28 W/m² | - |
* Rain latest hour (hover to see other rain measurements)
** Current wind speed in m/s (hover to see current wind gust speed)